Weather in Skien

Norway     59°11′47″N   9°36′26″E
temp.,
°C
wind,
m/s
gust,
m/s
humid.,
%
clouds,
%
prec.,
mm/h
press.,
hPa
HPBL,
m
30 june, thu
thu3023:00+12sse0077100 0.0 101911
02:00+11n11775 0.0 101910
05:00+10nnw11710 0.0 101914
08:00+17wnw11491 0.0 1018263
11:00+23sse12355 0.0 10171151
14:00+25sse33310 0.0 10161879
17:00+25s32320 0.0 10151600
20:00+23s12447 0.0 101585
1 july, fri
fri123:00+16n225777 0.0 101516
02:00+14nnw1161100 0.0 101412
05:00+14nnw22645 0.0 101426
08:00+21nne12480 0.0 1013271
11:00+24e444427 0.0 10131388
14:00+24e445516 0.3 10121574
17:00+24ese34597 0.9 10111298
20:00+21sse356641 1.6 1011563
2 july, sat
sat223:00+17e1182100 0.0 101112
02:00+15se1299100 1.0 101198
05:00+14s2499100 2.1 1010165
08:00+14ssw398460 2.2 1011431
11:00+21sw683965 0.0 10111615
14:00+22sw79355 0.0 10132337
17:00+23sw683525 0.0 10132505
20:00+19sw574798 0.0 10141729
3 july, sun
sun323:00+14ssw3975100 0.0 1016424
02:00+10sse2396100 0.0 101660
05:00+10sse129925 0.0 101558
08:00+13sse3992100 0.4 1014815
11:00+16ssw487517 1.3 10141216
14:00+21ssw574078 1.6 10132395
17:00+17sse5758100 0.0 1013758
20:00+16sse2668100 0.0 1012420
4 july, mon
mon423:00+12ese1188100 0.0 101213
02:00+10e119275 0.0 101210
05:00+10nne119550 0.0 101111
08:00+15wsw117095 0.0 1010400
11:00+18ssw2452100 0.8 10091322
14:00+18ssw4652100 1.9 10071407
17:00+18sw584568 0.3 10071531
20:00+18wsw58495 0.4 10071326